[[{"header":{"parameterUnit":"m.s-1","parameterCategory":1,"la1":30.2991,"la2":30.254,"lo1":-89.0895,"lo2":-89.0444,"dy":0.0017,"dx":0.0017,"nx":28,"ny":28,"refTime":"2023-10-21T21:00:00:Z","depth":0,"parameterNumber":2,"parameterNumberName":"U-component_of_WINDS"},"data":[0,0,0,0,0,0,0,0,0,0,0,0,0,0,0,0,0,0,0,0,0,0,0,0,0,0,0,0,0,0,0,0,0,0,0,0,0,0,0,0,0,0,0,0,0,0,0,0,0,0,0,0,0,0,0,0,0,0,0.0692,0.0692,0,0.0732,0.0732,0.0733,0.0728,0.0727,0.0727,0.0726,0.0771,0.0772,0.0774,0,0,0,0,0,0,0,0,0,0,0,0,0,0.0614,0.0616,0.0692,0.0692,0.0693,0.0732,0.0732,0.0733,0.0728,0.0727,0.0727,0.0726,0.077,0.0772,0.0774,0,0,0,0,0,0,0,0,0,0,0,0,0,0.0651,0.0616,0.0692,0.0695,0.0696,0.0732,0.0732,0.0733,0.0728,0.0727,0.0726,0.0725,0.0769,0.0772,0.0775,0.0811,0,0,0.0783,0.0784,0,0,0,0,0,0,0,0,0.0649,0.0653,0.0694,0.0695,0.0696,0.0724,0.0721,0.0759,0.0729,0.0716,0.0726,0.0725,0.0756,0.076,0.077,0.0813,0.0815,0.0783,0.0785,0.0786,0.0787,0,0,0,0,0,0,0,0.0646,0.0652,0.0708,0.0695,0.0696,0.0696,0.07,0.0728,0.0741,0.0717,0.0717,0.0721,0.0756,0.0767,0.0771,0.0815,0.0783,0.0785,0.0787,0.0788,0.0891,0.0893,0,0,0,0,0,0,0.0642,0.065,0.0706,0.0709,0.0669,0.0698,0.0702,0.0716,0.0741,0.0744,0.0722,0.0721,0.0763,0.0767,0.0772,0.0817,0.0786,0.0788,0.079,0.089,0.0892,0.0893,0,0,0,0,0,0,0.0641,0.0647,0.0705,0.0679,0.0686,0.07,0.0715,0.0717,0.0728,0.0745,0.0747,0.0731,0.0762,0.0768,0.0801,0.0818,0.079,0.0792,0.0889,0.0891,0.0892,0.0906,0,0,0,0,0,0,0.0638,0.0647,0.066,0.0679,0.0688,0.0732,0.0716,0.0719,0.0732,0.0731,0.0753,0.0756,0.0762,0.0797,0.0804,0.0821,0.0794,0.0888,0.089,0.0892,0.0904,0.0908,0.0911,0,0,0,0,0,0.0636,0.0662,0.066,0.0667,0.0704,0.0733,0.0738,0.0743,0.0733,0.0747,0.0758,0.0755,0.0815,0.0801,0.0808,0.0827,0.0887,0.0889,0.0892,0.0902,0.0907,0.0911,0,0,0,0,0,0,0.0645,0.0665,0.0663,0.0697,0.0713,0.0732,0.075,0.0748,0.0768,0.0767,0.0774,0.0779,0.0812,0.0823,0.0806,0.0863,0.085,0.0854,0.0855,0.086,0.0863,0.086,0.0796,0,0,0,0,0,0.0651,0.0672,0.0688,0.0717,0.0725,0.0736,0.0749,0.0751,0.0769,0.0776,0.079,0.0808,0.0831,0.0846,0.0868,0.0905,0.0911,0.0922,0.0925,0.0928,0.0932,0.0954,0.0959,0.0901,0.0901,0.0901,0,0,0.0664,0.0677,0.069,0.0719,0.0732,0.0754,0.0742,0.0766,0.0783,0.078,0.0812,0.0822,0.0843,0.0879,0.0895,0.0889,0.0949,0.0932,0.0934,0.0936,0.0957,0.0962,0.0967,0.0903,0.0903,0.0902,0,0,0.0699,0.0711,0.0736,0.0749,0.0768,0.0775,0.0782,0.0801,0.0807,0.0839,0.0838,0.0859,0.0898,0.0913,0.0926,0.0967,0.0965,0.0974,0.0993,0.1014,0.1018,0.1022,0.1038,0.1043,0.0977,0.0978,0.0978,0,0.0713,0.0745,0.0749,0.0773,0.0787,0.0784,0.081,0.0823,0.085,0.0859,0.0852,0.0901,0.0915,0.0954,0.0964,0.0974,0.0983,0.0972,0.1017,0.1021,0.1025,0.104,0.1045,0.0978,0.0978,0.0978,0.0978,0,0.0761,0.0784,0.0802,0.0826,0.0842,0.0867,0.0876,0.0891,0.0893,0.0901,0.0934,0.0951,0.0976,0.0986,0.0988,0.1026,0.1021,0.1015,0.1002,0.1031,0.1045,0.1051,0.098,0.0979,0.0979,0.0979,0,0,0.0804,0.083,0.0836,0.0847,0.0869,0.0887,0.0913,0.0937,0.095,0.0969,0.0991,0.1024,0.1019,0.1033,0.1037,0.1056,0.1088,0.1048,0.1048,0.1055,0.1132,0.1137,0.1143,0.1087,0.1088,0.1089,0.113,0,0.0841,0.0885,0.0889,0.0929,0.0951,0.0949,0.0972,0.0988,0.0997,0.1017,0.1027,0.1051,0.1042,0.105,0.1068,0.108,0.1104,0.1077,0.1109,0.111,0.1104,0.115,0.1155,0.1193,0.1136,0.1137,0.1137,0,0.089,0.0909,0.095,0.0969,0.0979,0.0998,0.1021,0.104,0.106,0.1065,0.1081,0.1083,0.1111,0.1095,0.1135,0.1116,0.113,0.1138,0.1139,0.1143,0.1126,0.1156,0.1206,0.1212,0.1146,0.1145,0.1145,0,0.0917,0.0953,0.0983,0.0992,0.1015,0.1029,0.104,0.1057,0.1072,0.1092,0.1102,0.1126,0.1139,0.1158,0.1166,0.1154,0.1205,0.1191,0.1211,0.1211,0.1222,0.1222,0.1276,0.123,0.123,0.123,0.123,0,0.0959,0.0984,0.0995,0.1013,0.1043,0.1048,0.1077,0.1087,0.1103,0.1125,0.1125,0.1145,0.1155,0.1177,0.1184,0.1216,0.1222,0.1228,0.1229,0.1228,0.1227,0.1237,0.1235,0.1232,0.1231,0.1231,0.1231,0,0.0994,0.1002,0.1034,0.1053,0.1058,0.1079,0.1096,0.1114,0.1123,0.115,0.1156,0.117,0.1196,0.1206,0.1239,0.1243,0.128,0.128,0.1274,0.1274,0.1294,0.1293,0.1357,0.1367,0.1314,0.1315,0.1315,0,0.102,0.104,0.106,0.1074,0.1084,0.1106,0.1121,0.1128,0.1143,0.1166,0.1182,0.1208,0.1229,0.1271,0.1285,0.131,0.131,0.1331,0.1314,0.1312,0.1311,0.131,0.1312,0.1334,0.1335,0.1335,0.1336,0,0.1065,0.1069,0.1089,0.1111,0.1128,0.1146,0.1163,0.1175,0.1184,0.1202,0.1228,0.1244,0.1276,0.1303,0.1328,0.134,0.134,0.1341,0.1347,0.1346,0.1342,0.1345,0.1283,0.1339,0.1339,0.1339,0.1338,0.1338,0.1097,0.1115,0.1132,0.1155,0.1169,0.1185,0.1203,0.1214,0.1235,0.1261,0.1265,0.1293,0.1313,0.1347,0.136,0.1383,0.1378,0.1387,0.1389,0.1391,0.1393,0.1338,0.1388,0.1388,0.1388,0.1388,0.1388,0,0.1143,0.1154,0.1175,0.1199,0.1217,0.1214,0.1234,0.125,0.1274,0.1292,0.1312,0.1343,0.1368,0.1384,0.141,0.1425,0.1426,0.1432,0.1431,0.1434,0.1396,0.1388,0.1431,0.1431,0.1431,0.1431,0.1431,0.1431,0.1169,0.1199,0.1204,0.1241,0.1253,0.1279,0.1291,0.1307,0.1321,0.1354,0.1375,0.1385,0.1402,0.1429,0.1453,0.1457,0.1467,0.1473,0.1477,0.1441,0.1437,0.1432,0.1425,0.1475,0.1475,0.1514,0.1514,0.1514]},{"header":{"parameterUnit":"m.s-1","parameterCategory":1,"la1":30.2991,"la2":30.254,"lo1":-89.0895,"lo2":-89.0444,"dy":0.0017,"dx":0.0017,"nx":28,"ny":28,"refTime":"2023-10-21T21:00:00:Z","depth":0,"parameterNumber":3,"parameterNumberName":"V-component_of_WINDS"},"data":[0,0,0,0,0,0,0,0,0,0,0,0,0,0,0,0,0,0,0,0,0,0,0,0,0,0,0,0,0,0,0,0,0,0,0,0,0,0,0,0,0,0,0,0,0,0,0,0,0,0,0,0,0,0,0,0,0,0,0.6069,0.6068,0,0.5965,0.5964,0.5962,0.5883,0.5882,0.5881,0.5881,0.5773,0.5771,0.5769,0,0,0,0,0,0,0,0,0,0,0,0,0,0.6199,0.6197,0.6069,0.6068,0.6066,0.5965,0.5964,0.5962,0.5883,0.5882,0.5881,0.588,0.5774,0.5771,0.5769,0,0,0,0,0,0,0,0,0,0,0,0,0,0.6124,0.6197,0.6069,0.6015,0.6009,0.5965,0.5963,0.5962,0.5883,0.5882,0.5881,0.588,0.5775,0.5771,0.5768,0.577,0,0,0.5758,0.5757,0,0,0,0,0,0,0,0,0.6128,0.6119,0.6024,0.6018,0.6012,0.5936,0.597,0.5897,0.5884,0.5931,0.5881,0.5879,0.5828,0.582,0.5803,0.5765,0.576,0.5758,0.5756,0.5754,0.5754,0,0,0,0,0,0,0,0.6133,0.6123,0.6028,0.6023,0.6015,0.5995,0.5984,0.5956,0.5887,0.5927,0.5921,0.591,0.5824,0.5806,0.58,0.5759,0.5758,0.5755,0.5753,0.5752,0.5718,0.5719,0,0,0,0,0,0,0.6147,0.6128,0.6031,0.6025,0.6068,0.5994,0.5981,0.5961,0.5887,0.5875,0.5911,0.5906,0.5813,0.5804,0.5796,0.5794,0.5755,0.5751,0.575,0.5717,0.5719,0.572,0,0,0,0,0,0,0.615,0.6139,0.6035,0.6075,0.606,0.5993,0.5972,0.596,0.5942,0.5875,0.5862,0.5905,0.5811,0.58,0.5777,0.5789,0.575,0.5747,0.5716,0.5718,0.5719,0.5791,0,0,0,0,0,0,0.6154,0.6141,0.6141,0.6075,0.6058,0.6019,0.5972,0.5959,0.5936,0.593,0.5866,0.5854,0.581,0.5783,0.5774,0.5784,0.5744,0.5715,0.5717,0.5719,0.5787,0.5794,0.5801,0,0,0,0,0,0.6159,0.6164,0.6141,0.613,0.6057,0.602,0.601,0.5958,0.5938,0.5937,0.5894,0.5856,0.5789,0.5781,0.5771,0.578,0.5714,0.5716,0.5719,0.5784,0.5793,0.5801,0,0,0,0,0,0,0.6232,0.6155,0.6128,0.6112,0.6073,0.6006,0.6004,0.597,0.5935,0.593,0.5868,0.5854,0.5838,0.5806,0.5798,0.5779,0.5747,0.5747,0.58,0.5808,0.5815,0.5823,0.5742,0,0,0,0,0,0.6247,0.6224,0.6157,0.6149,0.6131,0.6071,0.6053,0.6017,0.5974,0.5957,0.5912,0.5872,0.5841,0.5823,0.5791,0.5782,0.5767,0.5783,0.579,0.5796,0.5798,0.5792,0.5798,0.5728,0.5728,0.5728,0,0,0.6276,0.6231,0.622,0.6163,0.6128,0.6106,0.6058,0.6035,0.6018,0.5953,0.5929,0.5895,0.5846,0.583,0.5821,0.5803,0.5814,0.5799,0.5805,0.5803,0.5795,0.5802,0.5808,0.5729,0.5729,0.5729,0,0,0.6318,0.6281,0.6271,0.6238,0.6187,0.6147,0.6145,0.6084,0.6059,0.6034,0.5985,0.5964,0.5913,0.588,0.5857,0.5889,0.5853,0.588,0.5917,0.5912,0.5918,0.5922,0.5935,0.594,0.5881,0.5882,0.5882,0,0.6361,0.6325,0.6271,0.6252,0.6229,0.617,0.616,0.613,0.6071,0.6057,0.6038,0.5974,0.5936,0.5913,0.5921,0.5904,0.59,0.5887,0.5921,0.5925,0.5929,0.594,0.5945,0.5885,0.5885,0.5884,0.5884,0,0.6381,0.6357,0.6355,0.6301,0.6277,0.6263,0.6207,0.619,0.6156,0.6119,0.6095,0.6048,0.6007,0.5998,0.5965,0.5971,0.5962,0.5933,0.59,0.594,0.595,0.5954,0.5891,0.5889,0.5888,0.5887,0,0,0.6465,0.6382,0.6383,0.6358,0.6298,0.6278,0.6262,0.6222,0.6209,0.6171,0.6156,0.6115,0.6089,0.6062,0.6025,0.602,0.605,0.5992,0.599,0.6005,0.6055,0.6078,0.6084,0.6026,0.6027,0.6027,0.606,0,0.6498,0.6466,0.6418,0.6401,0.6379,0.6324,0.6309,0.6271,0.6236,0.6212,0.6173,0.6146,0.6112,0.6096,0.609,0.6048,0.606,0.6045,0.6012,0.6012,0.6027,0.6089,0.6112,0.6146,0.6063,0.6064,0.6064,0,0.6533,0.6499,0.6481,0.6424,0.6413,0.6401,0.6362,0.6339,0.6295,0.627,0.6242,0.6202,0.6182,0.6152,0.6125,0.6116,0.61,0.6078,0.6077,0.6073,0.6041,0.6087,0.6155,0.6161,0.6069,0.6069,0.6069,0,0.6598,0.6547,0.6531,0.6511,0.6444,0.6437,0.6409,0.6364,0.6344,0.6309,0.6295,0.6259,0.6239,0.6212,0.6163,0.6146,0.6142,0.6107,0.6121,0.6122,0.6123,0.6124,0.619,0.6111,0.6111,0.6111,0.6111,0,0.6641,0.6632,0.6559,0.6549,0.6538,0.6483,0.6473,0.644,0.6401,0.6383,0.6332,0.6317,0.6253,0.623,0.6192,0.6176,0.6167,0.6147,0.6137,0.6152,0.6155,0.6141,0.6138,0.6112,0.6112,0.6112,0.6112,0,0.6712,0.6662,0.6641,0.6579,0.6564,0.6559,0.6506,0.6495,0.6457,0.6436,0.6428,0.6369,0.634,0.6288,0.6244,0.6218,0.6211,0.6193,0.6226,0.622,0.6237,0.6237,0.6298,0.6304,0.622,0.6221,0.6222,0,0.6743,0.6735,0.6674,0.6659,0.6633,0.6609,0.6589,0.6534,0.6515,0.6465,0.646,0.6427,0.6397,0.6354,0.6307,0.6274,0.6255,0.6279,0.625,0.6266,0.6257,0.6259,0.6258,0.6286,0.6287,0.6288,0.6289,0,0.6804,0.678,0.6753,0.6718,0.6695,0.6664,0.6631,0.6622,0.6559,0.654,0.6511,0.6488,0.6444,0.6413,0.6373,0.6343,0.6306,0.6298,0.63,0.6316,0.6336,0.6327,0.6245,0.6297,0.6296,0.6296,0.6295,0.6295,0.6856,0.6848,0.6804,0.6775,0.6745,0.6715,0.6702,0.6663,0.6638,0.6598,0.6567,0.654,0.6497,0.644,0.6413,0.6391,0.6374,0.6376,0.6377,0.6378,0.6385,0.6339,0.6384,0.6383,0.6383,0.6383,0.6382,0,0.6915,0.6885,0.6859,0.6815,0.6794,0.6761,0.6723,0.6707,0.6684,0.6647,0.662,0.6587,0.6556,0.6508,0.6474,0.6466,0.6448,0.6459,0.6459,0.6454,0.6402,0.6404,0.6474,0.6474,0.6474,0.6474,0.6474,0.6474,0.6944,0.6928,0.69,0.6869,0.6838,0.6811,0.6793,0.6766,0.6736,0.6702,0.6676,0.6645,0.6604,0.6567,0.6538,0.6524,0.6515,0.6531,0.6513,0.6465,0.6457,0.6449,0.6451,0.6529,0.6529,0.6566,0.6567,0.6567]}]]